www.pogodaiklimat.ru

ПОГОДА в Форт Леонард Вуд, MO

  • Прогноз погоды в Форт Леонард Вуд
  • Монитор погоды в Форт Леонард Вуд
  • Климат в Форт Леонард Вуд

АРХИВ ПОГОДЫ в Форт Леонард Вуд

Время (UTC), дата Ветер
(напр.,м/с)
 
Видим.   Явления Облачность Т
(С)
Тd
(С)
f
(%)
Тe
(С)
Тes
(С)
Комфортность

P
(гПа)

Po
(гПа)
Тmin
(С)
Tmax
(С)
R
(мм)
SD
(см)
20:04 21.05 Ю  5
{11} 
16 км  гроза  5/5 750 м
[средняя] 
+22.0  +18.0  78  +27  +29  душно    961.0         
20:06 21.05 ЮЗ  10
{25} 
16 км  гроза со слабым дождем  5/5 750 м
[средняя] 
+22.0  +19.0  83  +27  +27  душно    962.3         
20:16 21.05 ЮЗ  7
{25} 
592 м  гроза с сильным дождем  8/8 120 м
[средняя] 
+17.0  +15.0  88  +16  +16      964.2         
20:21 21.05 З  4
{13} 
592 м  гроза с сильным дождем, туман  8/8 120 м
[средняя] 
+16.0  +15.0  94  +15  +16      962.9         
20:26 21.05 З  3
{13} 
3 км  гроза с дождем, дымка  8/8 510 м
[средняя] 
+16.0  +14.0  88  +15  +18      962.0         
20:31 21.05 З  3
{8} 
4 км  гроза с дождем, дымка  8/8 570 м
[средняя] 
+16.0  +15.0  94  +15  +18      962.9         
20:32 21.05 З  3
{8} 
4 км  дождь, дымка, гроза  8/8 570 м  +16.0  +15.0  94  +15  +18      962.9         
20:37 21.05 ЮЗ  8 км  слабый дождь, дымка, гроза  8/8 570 м  +16.0  +15.0  94  +16  +18      963.3         
20:42 21.05   14 км  слабый дождь, гроза  8/8 570 м  +16.0  +15.0  94  +16  +19      962.6         
20:46 21.05 ЮЗ  16 км    8/8 630 м  +16.0  +15.0  94  +16  +19      962.6         
20:56 21.05   16 км    8/8 630 м  +16.7  +15.6  93  +17  +20      962.6         
21:08 21.05 Ю  14 км  слабый дождь  10/2 1500 м
[средняя] 
+17.0  +15.0  88  +17  +18      963.3         
21:46 21.05 ЮВ  11 км  гроза с дождем  5/5 780 м  +17.0  +16.0  94  +16  +19      962.6         
22:28 21.05 ЮВ  11 км  слабый дождь  8/8 1290 м  +16.0  +14.0  88  +14  +15      961.0         
22:52 21.05 Ю  16 км    8/2 1800 м
[средняя] 
+16.0  +14.0  88  +15  +15      962.6         
22:54 21.05 ЮВ  16 км  слабый дождь  8/2 1950 м
[средняя] 
+15.0  +14.0  94  +13  +13      962.3         
22:56 21.05 ЮВ  16 км  слабый дождь  8/2 1950 м
[средняя] 
+15.4  +13.6  89  +13  +14      962.3  +15.4  +22.2  25.1   
23:17 21.05 ЮВ  16 км    2/0 2700 м
[средняя] 
+15.0  +13.0  88  +13  +13      961.6         
00:56 22.05 Ю  16 км    8/0 3300 м
[средняя] 
+13.9  +11.9  88  +12  +12    1004.3  962.9         
01:56 22.05 Ю  16 км    8/0 4500 м
[средняя] 
+13.5  +12.1  91  +12  +12    1005.3  963.9      0.3   
02:56 22.05 Ю  16 км    5/0 4500 м
[средняя] 
+14.0  +12.0  88  +12  +12    1005.5  964.2         
03:56 22.05 ЮВ  16 км    ясно  +13.4  +12.3  93  +11  +11    1005.5  964.2         
04:56 22.05 ЮВ  16 км    ясно  +13.4  +12.4  94  +11  +11    1005.9  964.6  +13.3  +15.3  0.3   
05:56 22.05 ЮВ  16 км    ясно  +13.3  +12.0  92  +11  +11    1006.1  964.9         
06:56 22.05 ЮВ  16 км    ясно  +12.9  +11.1  89  +10  +10    1006.1  964.9         
07:56 22.05 ЮВ  16 км    ясно  +12.4  +10.6  89  +10  +10    1006.1  964.9         
08:56 22.05 ЮВ  16 км    ясно  +12.0  +10.2  89  +10  +10    1006.7  965.2         
09:56 22.05 ЮВ  16 км    ясно  +12.0  +10.2  89  +10  +10    1007.4  965.9         
10:56 22.05 ЮВ  16 км    ясно  +12.8  +10.5  86  +11  +11    1007.8  966.2  +12.0  +13.4     
11:56 22.05 Ю  16 км    ясно  +14.7  +11.3  80  +13  +14    1008.7  967.2         
12:56 22.05 Ю  16 км    ясно  +17.8  +12.9  73  +17  +19    1009.3  967.8         
13:56 22.05 Ю  16 км    ясно  +21.4  +12.8  58  +24  +26  комфорт  1009.9  968.5         
14:56 22.05 Ю  16 км    ясно  +23.3  +12.6  51  +26  +29  жарко  1010.4  969.1         
15:56 22.05 Ю  8
{10} 
16 км    2/0 6000 м
[средняя] 
+25.2  +15.5  55  +28  +30  жарко  1011.1  969.8         
16:56 22.05 Ю  6
{11} 
16 км    2/0 5700 м
[средняя верхняя] 
+25.8  +17.7  61  +30  +34  душно  1011.0  969.8  +12.9  +26.1     
18:56 22.05 Ю  8
{13} 
16 км    5/2 1080 м
[средняя] 
+27.3  +19.1  61  +33  +34  очень
душно 
1010.7  969.4         
19:56 22.05 Ю  9
{13} 
16 км    ясно  +28.5  +19.4  58  +34  +35  очень
душно 
1009.9  968.8         
20:56 22.05 Ю  9
{12} 
16 км    ясно  +28.6  +18.9  56  +34  +34  очень
душно 
1009.9  968.8         
21:56 22.05 Ю  8
{11} 
16 км    ясно  +28.0  +19.7  61  +34  +35  очень
душно 
1010.3  969.1         
22:56 22.05 Ю  16 км    ясно  +26.9  +20.0  66  +33  +35  очень
душно 
1010.7  969.4  +25.9  +28.8     
23:56 22.05 ЮВ  16 км    ясно  +25.3  +20.1  73  +31  +32  очень
душно 
1010.7  969.4         
00:56 23.05 Ю  16 км    ясно  +24.0  +20.3  80  +30  +30  очень
душно 
1011.3  970.1         
01:56 23.05 Ю  16 км    2/2 1800 м  +24.0  +20.5  81  +30  +30  очень
душно 
1012.5  971.4         
02:56 23.05 ЮВ  16 км    ясно  +23.7  +20.8  84  +30  +30  очень
душно 
1012.4  971.4         
03:56 23.05 ЮЗ  16 км    ясно  +24.1  +20.8  82  +30  +30  очень
душно 
1013.4  972.4         
04:56 23.05 Ю  16 км    2/2 780 м  +23.9  +20.8  83  +30  +30  очень
душно 
1014.1  973.0  +23.6  +26.8     
05:45 23.05   16 км  гроза  2/2 780 м  +23.0  +21.0  89  +31  +31  очень
душно 
1015.1  974.0         
05:57 23.05 ЮВ  16 км  гроза со слабым дождем  5/5 750 м  +23.0  +21.0  89  +31  +31  очень
душно 
1014.1  973.0         

 

Местоположение метеостанции Waynesville - St. Robert Regional Forney Field Airport: широта 37.7333 долгота -92.1333 высота над уровнем моря 353 м.

В архиве по умолчанию представлена погода в Форт Леонард Вуд за последние 1-2 суток. Обновление информации о фактической погоде в базе происходит ежечасно! Архивные данные за месяц целиком и за предыдущие месяцы Вы можете получить, выбрав интересующий диапазон дат из раскрывающегося списка и нажав кнопку "Ввод!".

Внимание! Архив погоды МЕТАР в базе сайта хранится не более 60 дней. Нет смысла пытаться выбрать более раннюю дату.

Внимание! Время в таблицах - всемирное. Для получения местного времени необходимо прибавить поправку, которая в Форт Леонард Вуд равна -6 ч.

Ветер - указаны скорость ветра в м/с и направление, откуда дует ветер: С - северный, СВ - северо-восточный, В - восточный, ЮВ - юго-восточный, Ю - южный, ЮЗ - юго-западный, З - западный, СЗ - северо-западный.
Видимость - горизонтальная дальность видимости в метрах или километрах. При видимости от 1 до 10 км при отсутствии осадков обычно наблюдается дымка, при ухудшении видимости до 1 км и менее - туман. В сухую погоду видимость может ухудшаться дымом, пылью или мглою.
Атмосферные явления - указаны явления, наблюдавшиеся в указанный момент времени.
Облачность - указаны через наклонную черту верхняя и нижняя облачность в баллах и высота нижней границы облаков в метрах. Внимание: облачность, как и прочие метеорологические величины в США измеряются автоматическими метеостанциями. Указанные значения в баллах носят условный характер и показывают процент времени, в течение которого, в среднем, лазерный луч высотомера отражался от облаков обратно.
T - Температура воздуха - температура, измеренная на высоте 2 м над землей.
Td - Температура точки росы - температура, при понижении до которой содержащийся в воздухе водяной пар достигнет насыщения.
f - Относительная влажность воздуха - влажноcть воздуха, измеренная на высоте 2 м над землей.
Te - Эффективная температура - температура, которую ощущает одетый по сезону человек в тени. Характеристика душности погоды. При расчете учитывается влияние влажности воздуха и скорости ветра на теплоощущения человека.
Tes - Эффективная температура на солнце - температура, которую ощущает человек, с поправкой на солнечный нагрев. Характеристика знойности погоды. Зависит от высоты солнца над горизонтом, облачности и скорости ветра. Ночью, в пасмурную погоду, а также при ветре 12 м/с и более поправка равна нулю.
P - Атмосферное давление - приведенное к уровню моря атмосферное давление.
Po - Атмосферное давление - измеренное на уровне метеостанции атмосферное давление.
Tmin - Минимальная температура - минимум температуры воздуха на высоте 2 м над землей.
Tmax - Максимальная температура - максимум температуры воздуха на высоте 2 м над землей.
R - Количество осадков - Количество выпавших осадков за 3 или 6 часов, мм.
SD - Снежный покров - Высота снежного покрова, см.